Location: Unspecified
(0.0000°N, 0.0000°E)
Time: 05:39:10
(UTC+00:00)

TBA - TO BE ASSIGNED - Pass Details

Date: 26 May 2026
Orbit: 462 x 464 km, 53.2° (Epoch: 8 June)

Event Time Altitude Azimuth Distance (km) Brightness Sun altitude
Rises 18:23:41 0° 185° (S) 2,487 ? -6.2°
Reaches altitude 10° 18:26:33 10° 161° (SSE) 1,608 ? -6.9°
Maximum altitude 18:28:41 15° 125° (SE) 1,330 ? -7.4°
Drops below altitude 10° 18:30:49 10° 88° (E) 1,602 ? -7.8°
Enters shadow 18:32:09 - 74° (ENE) 1,971 ? -8.2°
